CZ-6A DEB

Satellite information

Favourite Embed

Satellite Type and Status

DEBRISIN ORBIT

Key statistics

Satellite CZ-6A DEB at a glance.

Uptime

968

Days in orbit

Revolutions

≈ 14.2

Per day

Orbit

SSO

Sun Synchronous Orbit

Inclination

98.9

Latest

Satellite identification and parameters

Extended collection of information and parameters for CZ-6A DEB.

Object identification

Identified? True

Debris? True

Object name: CZ-6A DEB

International designator: 2022-151ADA

Object number (NORAD): 56282

Object ID (CCSDS): 56282

Country: PEOPLES REPUBLIC OF CHINA (PRC)

Current information (Y/N): Y

RCS size: SMALL

Orbital parameters

Period: 101.563 minutes

Inclination: 98.8559 deg

SMA: 7210.803 km

Apoapsis: 882.772 km

Periapsis: 782.564 km

RAAN: 193.0454 deg

Eccentricy: 0.0069484

Argument of periapsis: 270.7977 deg

Mean anomaly: 88.5236 deg

Mean motion: 14.1784031 rev/day

Mean motion (dot): 0.00003108 rev/day2

B* drag term: 0.0015079 1/REarth

Two-line elements (TLE)

Creation date: July 4, 2025, 10:56 p.m.

Reference frame: TEME

Reference center: EARTH

Epoch: July 4, 2025, 6:23 p.m. UTC

TLE line 0: 0 CZ-6A DEB

TLE line 1: 1 56282U 22151ADA 25185.76653884 .00003108 00000-0 15079-2 0 9998

TLE line 2: 2 56282 98.8559 193.0454 0069484 270.7977 88.5236 14.17840310118286

Live tracking on map

Real-time ground track for satellite CZ-6A DEB.

In-orbit conjunctions

A list of the most updated potential collisions computed for object CZ-6A DEB.

Target Orbit TCA Probability of collision Miss distance Type
SL-3 R/B LEO 2025-06-24 12:08:40 0.0001379783 423.0 (m) ROCKET BODY
TIMATION 1 LEO 2025-01-24 05:54:27 0.0001265681 831.0 (m) PAYLOAD
COSMOS 2219 LEO 2024-09-23 10:53:45 0.0002993159 528.0 (m) PAYLOAD
EXPLORER 20 LEO 2024-06-28 05:58:40 0.0006273393 452.0 (m) PAYLOAD

Associated space launch

Chinese satellite reported for atmospheric/ocean/environmental/spatial parameter research purposes, details TBD.

CZ-6A DEB was lifted into orbit during the mission ‘Long March 6A | Yunhai 3’, on board a Long March 6A space rocket.

The launch took place on Nov. 11, 2022, 10:52 p.m. from Launch Complex 9A.

For more information about the launch, click the button.

Launch to space Long March 6A | Yunhai 3
Long March 6A | Yunhai 3

Agency: N/A

Status: Launch Successful

Launch date: Nov. 11, 2022, 10:52 p.m. UTC

Rocket: Long March 6A

Launch pad: Launch Complex 9A

Location: Taiyuan Satellite Launch Center, People's Republic of China

...

Latest news about this satellite

There are no fresh news available about this satellite. Check back as we update our databases every day.


Newsletter sign-up

Weekly statistics, charts and insights to help you stay on top of the space industry.